McConnell AFB, KS

7:21 PM CDT on September 16, 2019 (GMT -0500)
McConnell Air Force Base

Weather History for KIAB - May, 2019

Change the Weather History Date:

Thursday, May 2, 2019

  Actual Average Record
Temperature  
Mean Temperature 54 °F -  
Max Temperature 61 °F 71 °F 83 °F (2018)
Min Temperature 46 °F 50 °F 35 °F (2005)
Degree Days  
Heating Degree Days 12    
Growing Degree Days 4 (Base 50)    
Moisture  
Dew Point 48 °F    
Average Humidity 87    
Maximum Humidity 100    
Minimum Humidity 61    
Precipitation  
Precipitation 0.23 in - - ()
Sea Level Pressure  
Sea Level Pressure 30.10 in    
Wind  
Wind Speed 17 mph (NNE)    
Max Wind Speed 23 mph    
Max Gust Speed 30 mph    
Visibility 9 miles    
Events Rain    
Averages and records for this station are not official NWS values.
T = Trace of Precipitation, MM = Missing Value Source: NWS Daily Summary

Daily Weather History Graph

Daily Weather History Graph

Search for Another Location

Airport or City:

Astronomy

May. 02, 2019 Rise Set
Actual Time 6:32 AM CDT 8:20 PM CDT
Civil Twilight 6:04 AM CDT 8:48 PM CDT
Nautical Twilight 5:30 AM CDT 9:22 PM CDT
Astronomical Twilight 4:53 AM CDT 9:59 PM CDT
Moon 5:41 AM CDT (5/2) 6:12 PM CDT (5/2)
Length of Visible Light 14h 43m
Length of Day
13h 47m
Waning Crescent, 5% of the Moon is Illuminated
May 2
Waning Crescent
May 4
New
May 11
First Quarter
May 18
Full
May 26
Last Quarter

Hourly Weather History & Observations

Time (CDT) Temp. Windchill Dew Point Humidity Pressure Visibility Wind Dir Wind Speed Gust Speed Precip Events Conditions
12:34 AM 53.6 °F - 53.6 °F 100% 30.03 in 8.0 mi North 23.0 mph 27.6 mph N/A Rain Light Rain
12:50 AM 53.6 °F - 51.8 °F 94% 30.03 in 10.0 mi North 18.4 mph 24.2 mph N/A Rain Light Rain
12:51 AM 53.6 °F - 51.8 °F 94% 30.03 in 10.0 mi North 17.3 mph 24.2 mph N/A   Overcast
12:56 AM 52.5 °F - 52.2 °F 99% 30.04 in 10.0 mi North 20.7 mph - 0.02 in   Overcast
1:29 AM 51.8 °F - 51.8 °F 100% 30.05 in 10.0 mi NNE 19.6 mph 29.9 mph N/A Rain Light Rain
1:30 AM 51.8 °F - 51.8 °F 100% 30.05 in 10.0 mi NNE 18.4 mph 29.9 mph N/A Rain Light Rain
1:42 AM 51.8 °F - 51.8 °F 100% 30.06 in 8.0 mi NNE 20.7 mph - N/A Rain Light Rain
1:56 AM 51.1 °F - 50.7 °F 99% 30.06 in 6.0 mi North 18.4 mph - 0.00 in Rain Light Rain
2:00 AM 51.8 °F - 50.0 °F 94% 30.06 in 6.0 mi NNE 18.4 mph 24.2 mph N/A   Overcast
2:04 AM 51.8 °F - 50.0 °F 94% 30.06 in 7.0 mi NNE 18.4 mph 24.2 mph N/A Rain Light Rain
2:05 AM 51.8 °F - 50.0 °F 94% 30.06 in 7.0 mi NNE 18.4 mph 24.2 mph N/A Rain Light Rain
2:23 AM 50.0 °F - 50.0 °F 100% 30.11 in 9.0 mi North 16.1 mph 20.7 mph N/A Rain Light Rain
2:25 AM 50.0 °F - 50.0 °F 100% 30.11 in 9.0 mi North 17.3 mph 20.7 mph N/A   Overcast
2:35 AM 50.0 °F - 50.0 °F 100% 30.12 in 10.0 mi North 19.6 mph 24.2 mph N/A Rain Light Rain
2:51 AM 50.0 °F - 50.0 °F 100% 30.11 in 8.0 mi North 18.4 mph - N/A Rain Light Rain
2:56 AM 50.0 °F - 49.6 °F 99% 30.11 in 9.0 mi North 20.7 mph 24.2 mph 0.01 in Rain Light Rain
3:04 AM 50.0 °F - 50.0 °F 100% 30.10 in 10.0 mi North 20.7 mph 24.2 mph N/A Rain Light Rain
3:12 AM 50.0 °F - 48.2 °F 94% 30.11 in 10.0 mi North 21.9 mph 27.6 mph N/A   Overcast
3:18 AM 50.0 °F - 48.2 °F 94% 30.12 in 10.0 mi North 21.9 mph 27.6 mph N/A   Overcast
3:22 AM 48.2 °F - 48.2 °F 100% 30.11 in 10.0 mi North 18.4 mph 27.6 mph N/A   Overcast
3:23 AM 48.2 °F - 48.2 °F 100% 30.11 in 10.0 mi North 18.4 mph 27.6 mph N/A   Overcast
3:42 AM 48.2 °F - 46.4 °F 93% 30.10 in 10.0 mi NNE 16.1 mph - N/A Rain Light Rain
3:56 AM 48.2 °F - 46.2 °F 93% 30.09 in 8.0 mi NE 19.6 mph - 0.02 in Rain Rain
4:14 AM 48.2 °F - 46.4 °F 93% 30.08 in 5.0 mi East 12.7 mph - N/A Rain Rain
4:24 AM 48.2 °F - 46.4 °F 93% 30.09 in 6.0 mi ENE 16.1 mph 19.6 mph N/A Rain Rain
4:31 AM 48.2 °F - 48.2 °F 100% 30.05 in 2.8 mi East 19.6 mph 24.2 mph N/A Rain Heavy Rain
4:38 AM 48.2 °F - 48.2 °F 100% 30.06 in 3.0 mi ENE 17.3 mph 26.5 mph N/A Rain Heavy Rain
4:42 AM 48.2 °F - 48.2 °F 100% 30.08 in 4.0 mi NNE 12.7 mph 26.5 mph N/A Rain Heavy Rain
4:45 AM 48.2 °F - 48.2 °F 100% 30.09 in 7.0 mi North 13.8 mph 25.3 mph N/A Rain Heavy Rain
4:49 AM 48.2 °F - 48.2 °F 100% 30.08 in 10.0 mi NNE 12.7 mph - N/A Rain Rain
4:54 AM 48.2 °F - 48.2 °F 100% 30.06 in 10.0 mi ENE 15.0 mph - N/A Rain Light Rain
4:56 AM 48.0 °F - 47.7 °F 99% 30.06 in 10.0 mi East 16.1 mph - 0.17 in Rain Light Rain
5:03 AM 48.2 °F - 48.2 °F 100% 30.07 in 10.0 mi NE 13.8 mph - N/A   Overcast
5:45 AM 48.2 °F - 48.2 °F 100% 30.11 in 10.0 mi NNW 11.5 mph - N/A Rain Light Rain
5:46 AM 48.2 °F - 48.2 °F 100% 30.11 in 10.0 mi NNW 11.5 mph - N/A Rain Light Rain
5:56 AM 48.6 °F - 48.2 °F 99% 30.11 in 10.0 mi North 12.7 mph - 0.00 in Rain Light Rain
5:57 AM 48.2 °F - 48.2 °F 100% 30.11 in 10.0 mi North 11.5 mph - N/A   Overcast
6:01 AM 48.2 °F - 48.2 °F 100% 30.10 in 10.0 mi North 13.8 mph - N/A   Overcast
6:04 AM 48.2 °F - 48.2 °F 100% 30.10 in 10.0 mi North 11.5 mph - N/A Rain Light Rain
6:29 AM 48.2 °F - 48.2 °F 100% 30.10 in 10.0 mi NNE 13.8 mph - N/A Rain Light Rain
6:33 AM 48.2 °F - 48.2 °F 100% 30.10 in 10.0 mi NNE 18.4 mph - N/A   Overcast
6:45 AM 48.2 °F - 46.4 °F 93% 30.10 in 10.0 mi NNE 16.1 mph 24.2 mph N/A   Overcast
6:56 AM 47.3 °F - 47.1 °F 99% 30.10 in 10.0 mi North 17.3 mph 25.3 mph 0.01 in   Overcast
7:33 AM 46.4 °F 39.0 °F 46.4 °F 100% 30.13 in 10.0 mi North 19.6 mph 26.5 mph N/A   Overcast
7:44 AM 48.2 °F - 46.4 °F 93% 30.12 in 10.0 mi North 16.1 mph - N/A   Mostly Cloudy
7:56 AM 47.8 °F - 46.9 °F 97% 30.13 in 10.0 mi NNE 13.8 mph - N/A   Mostly Cloudy
8:29 AM 50.0 °F - 46.4 °F 87% 30.14 in 10.0 mi North 17.3 mph - N/A   Mostly Cloudy
8:38 AM 48.2 °F - 46.4 °F 93% 30.15 in 10.0 mi NNE 15.0 mph - N/A   Scattered Clouds
8:48 AM 50.0 °F - 46.4 °F 87% 30.15 in 10.0 mi North 15.0 mph - N/A   Mostly Cloudy
8:51 AM 50.0 °F - 46.4 °F 87% 30.15 in 10.0 mi NNE 17.3 mph - N/A   Mostly Cloudy
8:55 AM 50.0 °F - 46.4 °F 87% 30.15 in 10.0 mi North 19.6 mph - N/A   Mostly Cloudy
8:56 AM 49.6 °F - 46.2 °F 88% 30.15 in 10.0 mi North 19.6 mph - N/A   Mostly Cloudy
9:56 AM 50.0 °F - 45.7 °F 85% 30.15 in 10.0 mi NNE 15.0 mph - N/A   Overcast
10:04 AM 50.0 °F - 46.4 °F 87% 30.15 in 10.0 mi North 16.1 mph - N/A   Overcast
10:56 AM 52.9 °F - 45.5 °F 76% 30.18 in 10.0 mi NNE 17.3 mph 21.9 mph N/A   Overcast
11:04 AM 53.6 °F - 46.4 °F 77% 30.18 in 10.0 mi NNE 15.0 mph 21.9 mph N/A   Overcast
11:29 AM 55.4 °F - 46.4 °F 72% 30.16 in 10.0 mi NNE 15.0 mph - N/A   Overcast
11:56 AM 57.4 °F - 48.0 °F 71% 30.16 in 10.0 mi NE 10.4 mph - N/A   Overcast
12:29 PM 57.2 °F - 48.2 °F 72% 30.16 in 10.0 mi NNE 13.8 mph - N/A   Overcast
12:38 PM 59.0 °F - 48.2 °F 67% 30.15 in 10.0 mi NNE 10.4 mph - N/A   Overcast
12:39 PM 59.0 °F - 48.2 °F 67% 30.15 in 10.0 mi NNE 10.4 mph - N/A   Overcast
12:54 PM 59.0 °F - 48.2 °F 67% 30.13 in 10.0 mi NE 15.0 mph 19.6 mph N/A   Overcast
12:56 PM 59.5 °F - 48.2 °F 66% 30.13 in 10.0 mi NE 13.8 mph 19.6 mph N/A   Overcast
1:34 PM 60.8 °F - 48.2 °F 63% 30.11 in 10.0 mi NE 11.5 mph - N/A   Overcast
1:37 PM 60.8 °F - 48.2 °F 63% 30.12 in 10.0 mi NE 10.4 mph - N/A   Overcast
1:39 PM 60.8 °F - 48.2 °F 63% 30.12 in 10.0 mi NE 10.4 mph - N/A   Overcast
1:56 PM 60.6 °F - 48.7 °F 65% 30.11 in 10.0 mi NNE 12.7 mph - N/A   Overcast
2:56 PM 60.4 °F - 48.6 °F 65% 30.10 in 10.0 mi NE 13.8 mph - N/A   Overcast
3:56 PM 61.2 °F - 48.0 °F 62% 30.08 in 10.0 mi NE 11.5 mph - N/A   Overcast
4:17 PM 60.8 °F - 48.2 °F 63% 30.08 in 10.0 mi NE 10.4 mph - N/A   Overcast
4:56 PM 61.7 °F - 48.0 °F 61% 30.06 in 10.0 mi ENE 12.7 mph - N/A   Overcast
5:56 PM 61.2 °F - 47.7 °F 61% 30.05 in 10.0 mi ENE 10.4 mph - N/A   Overcast
6:56 PM 61.0 °F - 47.8 °F 62% 30.04 in 10.0 mi ENE 10.4 mph - N/A   Overcast
7:56 PM 60.1 °F - 49.1 °F 67% 30.04 in 10.0 mi East 5.8 mph - N/A   Overcast
8:56 PM 59.0 °F - 49.3 °F 70% 30.04 in 10.0 mi East 3.5 mph - N/A   Overcast
9:56 PM 58.8 °F - 49.5 °F 71% 30.06 in 10.0 mi Calm Calm - N/A   Overcast
10:04 PM 59.0 °F - 50.0 °F 72% 30.06 in 10.0 mi Calm Calm - N/A   Overcast
10:28 PM 59.0 °F - 50.0 °F 72% 30.06 in 10.0 mi East 3.5 mph - N/A   Overcast
10:56 PM 57.7 °F - 50.5 °F 77% 30.06 in 10.0 mi East 4.6 mph - N/A   Overcast
11:56 PM 56.8 °F - 51.4 °F 82% 30.05 in 10.0 mi ESE 4.6 mph - N/A   Overcast